Find Starlink 4692

NORAD ID: 53603 Int'l Des: 2022-104 Owner: SPXS Country: US Constellation: starlink operational
LEOCIRCULAR

現在のビュー

3D地球を読み込み中...

About Starlink 4692

Starlink 4692 (NORAD 53603) is a starlink constellation satellite (v1.5) launched Aug 28, 2022 by SPXS of US. It operates in LEO, CIRCULAR orbit with a mass of 300.00 kg.

Starlink 4692について

説明を読み込み中...

次回通過

Passes for default location (London). Set your location on the main map for personalized predictions.

高度履歴

Loading altitude history...

軌道要素

1 53603U 22104R 26175.14409969 -.00001984 00000-0 -10662-3 0 9991
2 53603 53.1615 121.2661 0001651 88.8633 271.2547 15.08835919211751
Epoch: Jun 24, 2026 • Age: 15 hours

現在のステータス

高度 545.0 km
速度 7.60 km/s
衛星直下点 52.48°N, 36.59°E
打ち上げ日 Aug 28, 2022
運用期間 3.8 years
タイプ internet

技術仕様

分類 Payload
質量 300.00 kg
乾燥質量 290.00 kg
総質量 300.00 kg
長さ 0.20 m
直径 2.80 m
スパン 9.00 m
形状 Box + pan
製造者 SPXS
バスタイプ Starlink
フェーズステータス In Orbit
所有者/国 SPXS/US

Most Searched